Location: Cedar Falls
(42.5280°N, 92.4450°W)
Time: 20:25:07
(UTC-05:00)

NOSS 3-1 (C) - Visible Passes

Search period start: 23 April 2017 00:00
Search period end: 03 May 2017 00:00
Orbit: 829 x 1380 km, 63.4° (Epoch: 20 April)

Date Brightness Start Highest point End Pass type
(mag) Time Alt. Az. Time Alt. Az. Time Alt. Az.
23 Apr 4.8 01:28:19 30° WNW 01:29:25 32° NW 01:35:20 10° NNE visible
23 Apr 6.0 03:19:29 10° NW 03:22:44 14° N 03:26:10 10° NNE visible
23 Apr 6.2 05:12:47 10° NNW 05:16:57 16° NNE 05:21:23 10° NE visible
23 Apr 5.0 22:56:19 21° ENE 22:56:19 21° ENE 22:58:43 10° NE visible
24 Apr 4.2 00:43:39 46° NW 00:43:48 46° NW 00:50:09 10° NNE visible
24 Apr 5.9 02:32:44 10° WNW 02:36:34 16° NNW 02:40:43 10° NNE visible
24 Apr 6.2 04:27:21 10° NNW 04:30:45 14° N 04:34:19 10° NE visible
24 Apr 5.3 22:11:30 13° ENE 22:11:30 13° ENE 22:12:32 10° ENE visible
24 Apr 3.6 23:58:49 68° NNW 23:58:49 68° NNW 00:04:53 10° NNE visible
25 Apr 5.7 01:46:08 10° WNW 01:50:32 20° NNW 01:55:27 10° NNE visible
25 Apr 6.2 03:41:32 10° NNW 03:44:29 13° N 03:47:35 10° NNE visible
25 Apr 6.1 05:32:55 10° NNW 05:38:25 22° NNE 05:44:23 10° ENE visible
25 Apr 3.4 23:13:48 66° ENE 23:13:48 66° ENE 23:19:31 10° NE visible
26 Apr 5.3 01:01:06 16° W 01:04:40 27° NW 01:10:16 10° NNE visible
26 Apr 6.2 02:55:12 10° NNW 02:58:14 13° N 03:01:24 10° NNE visible
26 Apr 6.2 04:47:45 10° NNW 04:52:23 18° NNE 04:57:22 10° ENE visible
26 Apr 3.7 22:28:27 43° ESE 22:28:27 43° ESE 22:33:58 10° NE visible
27 Apr 4.7 00:15:43 22° W 00:18:56 38° NW 00:25:05 10° NNE visible
27 Apr 6.1 02:08:31 10° NW 02:12:01 15° NNW 02:15:45 10° NNE visible
27 Apr 6.3 04:02:26 10° NNW 04:06:14 15° NNE 04:10:15 10° NE visible
27 Apr 4.2 21:42:31 25° ESE 21:43:06 26° ESE 21:48:06 10° ENE visible
27 Apr 3.9 23:29:42 23° WSW 23:33:24 56° NW 23:39:51 10° NNE visible
28 Apr 6.0 01:21:46 10° WNW 01:25:55 18° NNW 01:30:24 10° NNE visible
28 Apr 6.4 03:16:52 10° NNW 03:20:00 13° N 03:23:18 10° NNE visible
28 Apr 6.2 05:07:49 10° NNW 05:13:45 26° NNE 05:20:13 10° E visible
28 Apr 4.8 20:55:22 10° SE 20:58:20 14° ESE 21:01:26 10° ENE visible
28 Apr 3.3 22:42:16 10° SW 22:48:02 87° NW 22:54:33 10° NE visible
29 Apr 5.6 00:35:11 10° W 00:39:56 23° NNW 00:45:11 10° NNE visible
29 Apr 6.4 02:30:49 10° NNW 02:33:43 13° N 02:36:47 10° NNE visible
29 Apr 6.3 04:22:40 10° NNW 04:27:48 20° NNE 04:33:19 10° ENE visible
29 Apr 3.3 21:57:15 10° SSW 22:02:51 58° ESE 22:09:07 10° NE visible
29 Apr 5.1 23:48:52 10° W 23:54:08 31° NW 00:00:00 10° NNE visible
30 Apr 6.3 01:44:16 10° NW 01:47:29 14° N 01:50:53 10° NNE visible
30 Apr 6.4 03:37:27 10° NNW 03:41:42 16° NNE 03:46:14 10° NE visible
30 Apr 5.5 05:27:49 10° NNW 05:34:46 41° NE 05:42:25 10° ESE visible
30 Apr 3.9 21:12:45 10° S 21:17:51 34° ESE 21:23:26 10° NE visible
30 Apr 4.5 23:02:53 10° WSW 23:08:29 45° NW 23:14:48 10° NNE visible
01 May 6.2 00:57:31 10° NW 01:01:20 16° NNW 01:05:23 10° NNE visible
01 May 6.5 02:52:03 10° NNW 02:55:30 14° N 02:59:09 10° NE visible
01 May 6.0 04:42:42 10° NNW 04:49:02 30° NE 04:55:59 10° E visible
01 May 3.7 22:17:16 10° SW 22:23:01 69° NW 22:29:33 10° NNE visible
02 May 6.0 00:10:50 10° WNW 00:15:17 20° NNW 00:20:07 10° NNE visible
02 May 6.5 02:06:17 10° NNW 02:09:15 13° N 02:12:21 10° NNE visible
02 May 6.3 03:57:34 10° NNW 04:03:09 23° NNE 04:09:13 10° E visible
02 May 3.3 21:32:01 10° SSW 21:37:45 76° ESE 21:44:11 10° NE visible
02 May 5.5 23:24:22 10° W 23:29:22 26° NNW 23:34:55 10° NNE visible
